RADUGA 4 [-]

Last updated on July 6, 2021, 3:35 p.m. UTC

1 10987U 78073A   21186.75001355 -.00000332  00000-0  00000-0 0  9993
2 10987   9.2601 300.9079 0008179 356.5361   6.7202  1.00255462101483
UTC
Height (km)
Latitude
Longitude
Inclination
Orbital Period
UTC large
Height (km)
Speed (km/s)
/
Latitude / Longitude
Inclination (degrees)
Orbital Period (minutes)
Azimuth
Elevation
Range (km)
Doppler Factor
iOS Compass Heading
iOS Angle